FW2048 Weather Reports


Display with metric or nautical units.
time (UTC)temp
F
wind
direction
speed
MPH
gust
MPH
rain 1hr
in
rain 24hr
in
rain mn
in
humidity
%
barometer
mb
20260505024550 65 0 0.0 0.0 0.00 0.00 0.00 68 1002.4
20260505023047 66 0 0.0 0.0 0.00 0.00 0.00 68 1002.2
20260505021541 67 0 0.0 0.0 0.00 0.00 0.00 65 1002.0
20260505020038 66 0 0.0 0.0 0.00 0.00 0.00 67 1001.7
20260505014559 66 0 0.0 0.0 0.00 0.00 0.00 67 1001.4
20260505013044 68 0 0.0 0.0 0.00 0.00 0.00 64 1001.2
20260505011549 69 0 0.0 0.0 0.00 0.00 0.00 60 1001.1
20260505010041 70 0 0.0 0.0 0.00 0.00 0.00 61 1001.2
20260505004539 71 0 0.0 0.0 0.00 0.00 0.00 61 1001.0
20260505003044 72 0 0.0 0.0 0.00 0.00 0.00 57 1001.0
20260505001546 73 0 0.0 0.0 0.00 0.00 0.00 54 1000.7
20260505000047 75 0 0.0 0.0 0.00 0.00 0.00 52 1000.6
20260504234541 76 0 0.0 0.0 0.00 0.00 0.00 51 1000.8
20260504233040 76 0 0.0 0.0 0.00 0.00 0.00 50 1000.8
20260504231540 77 0 0.0 0.0 0.00 0.00 0.00 49 1000.9
20260504230049 77 0 0.0 0.0 0.00 0.00 0.00 49 1000.9
20260504224547 78 0 0.0 0.0 0.00 0.00 0.00 47 1000.9
20260504223039 78 0 0.0 0.0 0.00 0.00 0.00 48 1000.9
20260504221539 79 0 0.0 0.0 0.00 0.00 0.00 48 1000.9
20260504220045 79 0 0.0 0.0 0.00 0.00 0.00 47 1001.2
20260504214552 79 0 0.0 0.0 0.00 0.00 0.00 46 1001.2
20260504213039 80 0 0.0 0.0 0.00 0.00 0.00 48 1001.3
20260504211538 79 0 0.0 0.0 0.00 0.00 0.00 48 1001.5
20260504210053 80 0 0.0 0.0 0.00 0.00 0.00 49 1001.5
20260504204558 80 0 0.0 0.0 0.00 0.00 0.00 46 1001.8
20260504203049 80 0 0.0 0.0 0.00 0.00 0.00 47 1001.9
20260504201539 80 0 0.0 0.0 0.00 0.00 0.00 47 1002.2
20260504200047 79 0 0.0 0.0 0.00 0.00 0.00 46 1002.3
20260504194545 80 0 0.0 0.0 0.00 0.00 0.00 45 1002.4
20260504193044 80 0 0.0 0.0 0.00 0.00 0.00 52 1002.6
20260504191542 80 0 0.0 0.0 0.00 0.00 0.00 47 1002.6
20260504190038 79 0 0.0 0.0 0.00 0.00 0.00 46 1002.8
20260504184546 78 0 0.0 0.0 0.00 0.00 0.00 52 1002.9
20260504183045 78 0 0.0 0.0 0.00 0.00 0.00 47 1003.0
20260504181543 77 0 0.0 0.0 0.00 0.00 0.00 47 1003.0
20260504180043 78 0 0.0 0.0 0.00 0.00 0.00 49 1003.2
20260504174538 77 0 0.0 0.0 0.00 0.00 0.00 49 1003.3
20260504173041 76 0 0.0 0.0 0.00 0.00 0.00 50 1003.5
20260504171546 76 0 0.0 0.0 0.00 0.00 0.00 51 1003.6
20260504081556 60 0 0.0 0.0 0.00 0.00 0.00 72 1005.5
20260504044542 61 0 0.0 0.0 0.00 0.00 0.00 71 1007.0
20260504043053 61 0 0.0 0.0 0.00 0.00 0.00 72 1007.2
20260504041543 58 0 0.0 0.0 0.00 0.00 0.00 77 1007.4
20260504040042 57 0 0.0 0.0 0.00 0.00 0.00 78 1007.6
20260504034544 57 0 0.0 0.0 0.00 0.00 0.00 79 1007.7
20260504033045 58 0 0.0 0.0 0.00 0.00 0.00 76 1007.7
20260504031544 59 0 0.0 0.0 0.00 0.00 0.00 75 1007.9
20260504030041 60 0 0.0 0.0 0.00 0.00 0.00 74 1007.8